Find Starlink 37093

NORAD ID: 68194 Int'l Des: 2026-050 Owner: SPXS Country: US Constellation: starlink operational
LEOCIRCULAR

Live Position

Loading 3D Globe...

About Starlink 37093

Description loading...

Upcoming Passes

Passes for default location (London). Set your location on the main map for personalized predictions.

Altitude History

Loading altitude history...

Two-Line Element Set

1 68194U 26050AD 26120.94687088 .00059559 00000-0 13672-2 0 9996
2 68194 53.1596 24.7493 0001053 90.1317 269.9810 15.42165311 8673
Epoch: Apr 30, 2026 • Age: 10 hours

Current Status

Altitude 442.5 km
Velocity 7.65 km/s
Sub-Earth Point 39.33°N, 76.98°E
Launch Date Mar 14, 2026
Age 0.1 years
Type internet

Technical Details

Classification Payload
Mass 575.00 kg
Dry Mass 530.00 kg
Total Mass 575.00 kg
Length 0.30 m
Diameter 4.10 m
Span 29.00 m
Shape Box + pan
Manufacturer SPXS
Bus Type Starlink V2MO
Phase Status In Orbit
Owner/State SPXS/US

Most Searched